Regional Weather Roundup
Issued by NWS Albany, NY

Home | Current Version | Previous Version | Graphics & Text | Print | Product List | Glossary Off
Versions: 1 2 3 4 5 6 7 8 9 10 11 12 13 14 15 16 17 18 19 20 21 22 23 24 25 26 27

000
ASUS41 KALY 261610
RWRALY

NEW YORK STATE HOURLY WEATHER ROUNDUP
NATIONAL WEATHER SERVICE ALBANY NY
1200 PM EDT FRI AUG 26 2016

NOTE: "FAIR" INDICATES FEW OR NO CLOUDS BELOW 12,000 FEET WITH NO
SIGNIFICANT WEATHER AND/OR NO OBSTRUCTIONS TO VISIBILITY.

NYZ032-033-038>043-046>054-057>066-NYZ062>081-082-084-261700-
EAST


CITY           SKY/WX    TMP DP  RH WIND       PRES   REMARKS
ALBANY         MOSUNNY   82  69  64 W15       29.99F
GLENS FALLS    MOSUNNY   82  68  62 NW5       29.98S
POUGHKEEPSIE   PTSUNNY   84  70  62 W8        29.97S
NEWBURGH       MOSUNNY   86  73  66 NW9G17    30.01S HX  93
MONTGOMERY     PTSUNNY   85  71  63 NW10      30.00S HX  90
WHITE PLAINS   MOSUNNY   86  70  58 NW10      29.99S HX  90
ISLIP          MOSUNNY   89  70  53 NW6       29.97S HX  94
NEW YORK CITY  MOSUNNY   87  70  56 NW16      29.97S HX  92
CENTRAL PARK     N/A     88  72  58 MISG        N/A  HX  94
$$

NYZ005>009-017-018-044>046-055-056-261700-
CENTRAL


CITY           SKY/WX    TMP DP  RH WIND       PRES   REMARKS
FULTON         SUNNY     78  63  59 NW9       30.07R
SYRACUSE       MOSUNNY   81  58  45 W10       30.05S
ROME           SUNNY     79  65  62 W15       30.05S
ELMIRA         MOSUNNY   81  65  58 N7        30.09S
BINGHAMTON     MOSUNNY   76  64  66 NW9G20    30.11R
MONTICELLO     CLOUDY    79  70  73 N8        30.09S
$$

NYZ026>034-041>043-087-261700-
NORTH


CITY           SKY/WX    TMP DP  RH WIND       PRES   REMARKS
WATERTOWN      SUNNY     81  53  37 W5        30.04S
FORT DRUM      NOT AVBL
MASSENA        SUNNY     79  59  50 W12       30.01R
SARANAC LAKE   MOSUNNY   74  60  61 VRB3      30.05R
PLATTSBURGH    MOSUNNY   84  63  49 VRB5      29.96R
$$

NYZ001>004-010>016-019>021-085-261700-
WEST


CITY           SKY/WX    TMP DP  RH WIND       PRES   REMARKS
NIAGARA FALLS  MOSUNNY   81  69  67 SW8       30.09
BUFFALO        MOSUNNY   80  68  66 W10       30.09S
DUNKIRK        MOSUNNY   77  70  79 W8        30.12R
JAMESTOWN      MOSUNNY   75  63  64 W7        30.17R
WELLSVILLE     PTSUNNY   76  63  64 NW8       30.18S
ROCHESTER      MOSUNNY   81  65  58 W10       30.08F
PENN YAN       SUNNY     79  64  60 W6        30.11S
$$

             KEY
       WCI = WIND CHILL INDEX
       VSB = VISIBILITY
       HX  = HEAT INDEX
$$




USA.gov is the U.S. government's official web portal to all federal, state and local government web resources and services.